Simultaneous Nadir Overpasses (SNOs) Predictions

Prediction of SNOs between METOP-B and TERRA Satellite Orbit:

Table of predicted SNOs for the next 14.0 days since TLE Epoch: 9/14/2019
Index Date (METOP-B) Time (METOP-B) Lat,Lon (METOP-B) SZA (METOP-B ) Date (TERRA) Time (TERRA) Lat,Lon (TERRA) SZA (TERRA ) Distance(km) Time Diff (sec)
1 09/14/2019 14:54:20 -81.31,-176.62 99.17 09/14/2019 14:54:56 -81.31,-176.45 99.13 2.93 36
2 09/14/2019 15:44:59 81.32, -8.67 80.92 09/14/2019 15:44:22 81.32, -8.67 80.91 0.33 37
3 09/17/2019 10:28:41 -81.31,-110.29 98.08 09/17/2019 10:29:12 -81.31,-110.15 98.05 2.42 31
4 09/17/2019 11:19:20 81.32, 57.62 82.01 09/17/2019 11:18:38 81.31, 57.61 81.99 0.39 42
5 09/20/2019 06:03:02 -81.31, -43.59 96.93 09/20/2019 06:03:30 -81.31, -43.68 96.93 1.50 28
6 09/20/2019 06:53:42 81.32, 123.89 83.11 09/20/2019 06:52:56 81.32, 124.07 83.11 3.14 46
7 09/23/2019 01:37:23 -81.32, 23.10 95.78 09/23/2019 01:37:49 -81.32, 22.97 95.78 2.14 26
8 09/23/2019 02:28:03 81.32,-169.46 84.25 09/23/2019 02:27:15 81.33,-169.29 84.25 3.11 48
9 09/25/2019 21:11:46 -81.31, 88.99 94.73 09/25/2019 21:12:11 -81.31, 89.04 94.71 1.21 25




NCC Satellite Simultaneous Nadir Overpasses (SNOs) Prediction Service
